Regional Weather Roundup
Issued by NWS Cleveland, OH

Home | Current Version | Previous Version | Text Only | Print | Product List | Glossary Off
Versions: 1 2 3 4 5 6 7 8 9 10 11 12 13 14 15 16 17 18 19 20 21 22 23 24 25 26 27 28 29 30 31 32 33 34 35 36 37 38 39 40 41 42 43 44 45 46 47 48 49 50

000
ASUS41 KCLE 270310
RWRCLE
OHIO REGIONAL WEATHER ROUNDUP
NATIONAL WEATHER SERVICE WILMINGTON, OH
1100 PM EDT THU MAR 26 2015

NOTE: "FAIR" INDICATES FEW OR NO CLOUDS BELOW 12,000 FEET WITH NO
SIGNIFICANT WEATHER AND/OR OBSTRUCTIONS TO VISIBILITY.

OHZ001>008-015>018-024>027-034-035-043-044-270400-
   NORTHWEST OHIO

CITY           SKY/WX    TMP DP  RH WIND       PRES   REMARKS
DEFIANCE       CLOUDY    36  24  62 NW9       29.97S
FINDLAY        MOCLDY    35  23  61 NW13      29.94R WCI  26
TOLEDO EXPRESS CLOUDY    35  22  58 NW10G18   29.95R WCI  27
TOLEDO EXEC    CLOUDY    36  22  56 NW10      29.95S
LIMA           CLEAR     34  25  69 NW6       29.96R WCI  29
$$

OHZ009>014-019>023-028>033-038-089-270400-
   NORTHEAST OHIO

CITY           SKY/WX    TMP DP  RH WIND       PRES   REMARKS
CLE-HOPKINS    CLOUDY    36  33  89 W7        29.92S
CLE-LAKEFRONT  CLOUDY    37  31  78 W10       29.89S
CUY CO. ARPT   CLOUDY    37  34  87 W7          N/A
LORAIN-ELYRIA  CLOUDY    37  30  75 NW10      29.91R
ASHTABULA      CLOUDY    35  32  88 W5        29.88S
AKRON-CANTON   CLOUDY    36  33  89 W3        29.88F
WOOSTER        CLOUDY    36  33  89 W5        29.90S FOG
MANSFIELD      PTCLDY    36  29  75 W9        29.90S
YOUNGSTOWN     CLOUDY    34  33  96 SW3       29.87S FOG
$$

OHZ042-051>053-060>062-070>072-077>081-270400-
  SOUTHWEST OHIO

CITY           SKY/WX    TMP DP  RH WIND       PRES   REMARKS
CINC-COVINGTON CLOUDY    40  32  73 VRB5      29.97S
CINC-LUNKEN    CLOUDY    41  33  73 NW3       29.98S
HAMILTON       MOCLDY    38  34  85 NW3       29.97F
DAYTON         CLOUDY    37  29  72 N8        29.97R
WRIGHT-PAT AFB CLOUDY    39  28  64 NW7       29.96R
DAYTON GENERAL CLOUDY    40  32  73 NW9       29.96R
WILMINGTON     CLOUDY    39  32  76 W5        29.95S
$$

OHZ036-037-039>041-045>050-054>059-063>069-073>076-082>088-270400-
  CENTRAL AND SOUTHEAST OHIO

CITY           SKY/WX    TMP DP  RH WIND       PRES   REMARKS
COLUMBUS       CLOUDY    39  34  82 W5        29.93S
OSU AIRPORT    CLOUDY    38  32  79 W8        29.93S
BOLTON FIELD   CLOUDY   N/A N/A N/A W3        29.95R
RICKENBACK AFB CLOUDY    38  34  84 W3        29.94F
NEWARK         CLOUDY    39  34  82 W6        29.93S
MARION         CLOUDY    37  27  67 NW9       29.94R
LANCASTER      CLOUDY    40  33  76 CALM      29.94R
ZANESVILLE     CLOUDY    39  32  76 W7        29.93R
NEW PHILLY     CLOUDY    40  34  79 CALM      29.91S
$$



USA.gov is the U.S. government's official web portal to all federal, state and local government web resources and services.